Location: Narrabri
(30.3170°S, 149.7830°E)
Time: 05:37:40
(UTC+10:00)

N. Korean satellite - Visible Passes

Search period start: 20 July 2018 00:00
Search period end: 30 July 2018 00:00
Orbit: 459 x 511 km, 97.2° (Epoch: 18 July)

Date Brightness Start Highest point End Pass type
(mag) Time Alt. Az. Time Alt. Az. Time Alt. Az.
20 Jul 6.4 05:54:58 10° N 05:58:25 77° WNW 06:01:55 10° SSW visible
20 Jul 8.8 19:01:02 10° SSW 19:04:09 26° WSW 19:07:17 10° NW visible
21 Jul 7.7 05:31:01 10° NNE 05:34:18 42° ESE 05:37:38 10° S visible
21 Jul 7.2 18:36:27 10° S 18:40:06 58° WSW 18:43:46 10° NNW visible
22 Jul 9.2 05:07:45 10° ENE 05:10:16 19° ESE 05:12:49 10° SSE visible
22 Jul 6.7 18:12:17 10° SSE 18:15:59 59° E 18:19:40 10° N visible
23 Jul 7.2 06:16:12 10° NNW 06:19:21 34° W 06:22:35 10° SSW visible
23 Jul 7.7 17:48:36 10° SE 17:51:47 26° E 17:54:58 10° NNE visible
23 Jul 9.7 19:22:58 10° SW 19:24:57 14° WSW 19:26:57 10° WNW visible
24 Jul 6.4 05:51:43 10° N 05:55:10 86° WNW 05:58:42 10° SSW visible
24 Jul 8.7 18:57:43 10° SSW 19:00:58 28° WSW 19:04:13 10° NW visible
25 Jul 7.9 05:27:50 10° NE 05:31:03 38° ESE 05:34:21 10° S visible
25 Jul 7.1 18:33:11 10° S 18:36:54 65° WSW 18:40:37 10° NNW visible
26 Jul 9.3 05:04:39 10° ENE 05:07:02 18° ESE 05:09:27 10° SSE visible
26 Jul 6.8 18:09:04 10° SSE 18:12:46 54° E 18:16:26 10° N visible
27 Jul 7.0 06:12:50 10° NNW 06:16:05 38° W 06:19:24 10° SSW visible
27 Jul 9.6 19:19:30 10° SW 19:21:45 15° WSW 19:24:01 10° WNW visible
28 Jul 6.5 05:48:26 10° NNE 05:51:53 85° E 05:55:27 10° S visible
28 Jul 8.5 18:54:23 10° SSW 18:57:45 31° WSW 19:01:06 10° NW visible
29 Jul 8.2 05:24:36 10° NE 05:27:48 34° ESE 05:31:03 10° S visible
29 Jul 6.9 18:29:54 10° S 18:33:41 72° WSW 18:37:24 10° NNW visible
